Location: Dürabuch
(48.2640°N, 11.2185°E)
Time: 21:30:41
(UTC+00:00)

COSMOS 2406 - Pass Details

Date: 23 May 2024
Orbit: 843 x 862 km, 71.0° (Epoch: 14 June)

Event Time Altitude Azimuth Distance (km) Brightness Sun altitude
Exits shadow 01:19:32 17° 244° (WSW) 2,019 4.7 -15.4°
Maximum altitude 01:23:30 41° 307° (NW) 1,231 4.1 -15.1°
Drops below altitude 10° 01:28:57 10° 18° (NNE) 2,509 6.9 -14.6°
Sets 01:31:34 0° 25° (NNE) 3,448 8.2 -14.3°
